Location: Newark
(45.6333°N, 17.8833°E)
Time: 03:00:28
(UTC+00:00)

N. Korean satellite - Visible Passes

Search period start: 24 October 2019 00:00
Search period end: 03 November 2019 00:00
Orbit: 455 x 508 km, 97.2° (Epoch: 23 October)

Date Brightness Start Highest point End Pass type
(mag) Time Alt. Az. Time Alt. Az. Time Alt. Az.
24 Oct 7.1 04:40:33 10° NNE 04:44:11 68° ESE 04:47:51 10° S visible
24 Oct 10.0 16:52:56 10° SW 16:55:06 16° W 16:57:17 10° NW visible
25 Oct 8.7 04:15:29 10° NNE 04:18:49 33° E 04:22:11 10° SSE visible
25 Oct 8.7 16:26:32 10° SSW 16:29:37 31° W 16:32:45 10° NNW visible
26 Oct 9.9 03:50:51 10° NE 03:53:21 17° E 03:55:52 10° SE visible
28 Oct 7.5 04:32:41 10° NNE 04:36:19 54° E 04:39:56 10° S visible
28 Oct 9.7 16:44:34 10° SW 16:47:08 19° W 16:49:45 10° NW visible
29 Oct 9.1 04:07:43 10° NE 04:10:55 27° E 04:14:06 10° SSE visible
29 Oct 8.2 16:18:24 10° SSW 16:21:40 38° W 16:24:59 10° NNW visible
30 Oct 10.1 03:43:20 10° ENE 03:45:24 14° E 03:47:29 10° SE visible
31 Oct 6.7 04:50:02 10° NNE 04:53:45 89° WNW 04:57:28 10° SSW visible
31 Oct 10.2 17:03:10 10° WSW 17:04:41 12° W 17:06:12 10° WNW visible
01 Nov 8.0 04:24:49 10° NNE 04:28:24 43° E 04:31:57 10° S visible
01 Nov 9.3 16:36:16 10° SSW 16:39:08 24° W 16:42:04 10° NW visible
02 Nov 9.4 03:59:58 10° NE 04:02:57 22° E 04:05:54 10° SSE visible
02 Nov 7.7 16:10:17 10° S 16:13:41 49° W 16:17:09 10° NNW visible
